Tracking 22124 objects as of 23-Jan-2021
HD Live streaming from Space Station
objects crossing your sky now

INTELSAT 2 (PAS 2)

Track INTELSAT 2 (PAS 2) now!
INTELSAT 2 (PAS 2) is classified as:


NORAD ID: 23175
Int'l Code: 1994-040A
Perigee: 36,069.8 km
Apogee: 36,127.1 km
Inclination: 8.9 °
Period: 1,451.7 minutes
Semi major axis: 42469 km
RCS: 6.3096 m2 (large)
Launch date: July 8, 1994
Source: United States (US)
Launch site: FRENCH GUIANA (FRGUI)

12 Ku-band; Asia-Pacific.
aabbcc
Your satellite tracking list
Your tracking list is empty




NASA's NSSDC Master Catalog

Two Line Element Set (TLE):
1 23175U 94040A   21022.85718309 -.00000061  00000-0  00000-0 0  9991
2 23175   8.8608  48.0500 0006745 325.5959  75.1377  0.99194462 96095
Source of the keplerian elements: AFSPC